Edinburgh Airport, United Kingdom

4:59 PM BST on June 27, 2017 (GMT +0100)
Edinburgh Airport

Weather History for EGPH - June, 2013

Change the Weather History Date:

Friday, June 28, 2013

  Actual Average Record
Temperature  
Mean Temperature 58 °F -  
Max Temperature 64 °F 66 °F 69 °F (2010)
Min Temperature 51 °F 51 °F 39 °F (2006)
Degree Days  
Heating Degree Days 8    
Growing Degree Days 8 (Base 50)    
Moisture  
Dew Point 52 °F    
Average Humidity 83    
Maximum Humidity 100    
Minimum Humidity 62    
Precipitation  
Precipitation 0.00 in 0.07 in - ()
Sea Level Pressure  
Sea Level Pressure 30.00 in    
Wind  
Wind Speed 10 mph ()    
Max Wind Speed 20 mph    
Max Gust Speed 28 mph    
Visibility 6.1 miles    
Events Rain    
Averages and records for this station are not official NWS values.
T = Trace of Precipitation, MM = Missing Value Source: Averaged Metar Reports

Daily Weather History Graph

Daily Weather History Graph

Search for Another Location

Airport or City:

Trip Planner

Search our weather history database for the weather conditions in past years. The results will help you decide how hot, cold, wet, or windy it might be!

Date:

Astronomy

Jun. 28, 2013 Rise Set
Actual Time 4:30 AM BST 10:03 PM BST
Civil Twilight 3:28 AM BST 11:04 PM BST
Nautical Twilight 1:49 AM BST 12:44 AM BST
Astronomical Twilight Sun does not set Sun does not set
Moon No Moon Rise 11:33 AM BST (6/28)
Length of Visible Light 19h 36m
Length of Day
17h 33m
Waning Gibbous, 68% of the Moon is Illuminated
Jun 28
Waning Gibbous
Jun 30
Last Quarter
Jul 8
New
Jul 16
First Quarter
Jul 22
Full

Hourly Weather History & Observations

Time (BST) Temp. Dew Point Humidity Pressure Visibility Wind Dir Wind Speed Gust Speed Precip Events Conditions
12:20 AM 55.4 °F 53.6 °F 94% 30.12 in 6.2 mi WSW 5.8 mph - N/A   Partly Cloudy
12:50 AM 55.4 °F 53.6 °F 94% 30.12 in 6.2 mi WSW 6.9 mph - N/A   Unknown
1:20 AM 55.4 °F 53.6 °F 94% 30.09 in - WSW 6.9 mph - N/A   Clear
1:50 AM 57.2 °F 53.6 °F 88% 30.09 in - WSW 5.8 mph - N/A   Clear
2:20 AM 57.2 °F 53.6 °F 88% 30.09 in - WSW 8.1 mph - N/A   Clear
2:50 AM 55.4 °F 53.6 °F 94% 30.09 in 6.2 mi WSW 9.2 mph - N/A   Mostly Cloudy
3:20 AM 55.4 °F 53.6 °F 94% 30.06 in 6.2 mi WSW 9.2 mph - N/A   Mostly Cloudy
3:50 AM 55.4 °F 53.6 °F 94% 30.06 in 6.2 mi West 9.2 mph - N/A   Mostly Cloudy
4:20 AM 55.4 °F 53.6 °F 94% 30.06 in 6.2 mi WSW 11.5 mph - N/A Rain Light Rain
4:50 AM 55.4 °F 53.6 °F 94% 30.04 in 6.2 mi WSW 9.2 mph - N/A   Mostly Cloudy
5:20 AM 55.4 °F 53.6 °F 94% 30.04 in 6.2 mi WSW 9.2 mph - N/A   Mostly Cloudy
5:50 AM 55.4 °F 53.6 °F 94% 30.04 in 6.2 mi WSW 10.4 mph - N/A Rain Rain
6:20 AM 55.4 °F 53.6 °F 94% 30.04 in 6.2 mi West 8.1 mph - N/A Rain Light Rain
6:50 AM 55.4 °F 55.4 °F 100% 30.04 in 6.2 mi WSW 10.4 mph - N/A Rain Light Rain
7:20 AM 55.4 °F 55.4 °F 100% 30.04 in 5.0 mi WSW 10.4 mph - N/A Rain Light Rain
7:50 AM 55.4 °F 55.4 °F 100% 30.01 in 6.2 mi WSW 10.4 mph - N/A Rain Light Rain
8:20 AM 57.2 °F 55.4 °F 94% 30.01 in 6.2 mi WSW 11.5 mph - N/A Rain Light Rain
8:50 AM 57.2 °F 55.4 °F 94% 30.01 in 6.2 mi WSW 11.5 mph - N/A Rain Light Rain
9:20 AM 57.2 °F 55.4 °F 94% 29.98 in 6.2 mi WSW 10.4 mph - N/A Rain Light Rain
9:50 AM 57.2 °F 55.4 °F 94% 29.98 in 6.2 mi WSW 12.7 mph - N/A Rain Light Rain
10:20 AM 57.2 °F 55.4 °F 94% 29.98 in 6.2 mi WSW 12.7 mph - N/A Rain Light Rain
10:50 AM 59.0 °F 57.2 °F 94% 29.95 in 4.3 mi WSW 16.1 mph - N/A Rain Light Rain
11:20 AM 59.0 °F 55.4 °F 88% 29.95 in 6.2 mi WSW 17.3 mph - N/A   Mostly Cloudy
11:50 AM 59.0 °F 55.4 °F 88% 29.95 in 6.2 mi West 15.0 mph - N/A   Mostly Cloudy
12:20 PM 59.0 °F 55.4 °F 88% 29.92 in 6.2 mi West 15.0 mph 27.6 mph N/A   Mostly Cloudy
12:50 PM 59.0 °F 55.4 °F 88% 29.92 in 6.2 mi WSW 18.4 mph - N/A   Mostly Cloudy
1:20 PM 60.8 °F 55.4 °F 82% 29.92 in 6.2 mi West 16.1 mph - N/A   Mostly Cloudy
1:50 PM 60.8 °F 55.4 °F 82% 29.92 in 6.2 mi West 18.4 mph - N/A   Mostly Cloudy
2:20 PM 62.6 °F 55.4 °F 77% 29.89 in 6.2 mi West 18.4 mph - N/A   Mostly Cloudy
2:50 PM 62.6 °F 55.4 °F 77% 29.89 in 6.2 mi West 16.1 mph 27.6 mph N/A   Mostly Cloudy
3:20 PM 62.6 °F 55.4 °F 77% 29.89 in 6.2 mi West 19.6 mph - N/A   Overcast
3:50 PM 64.4 °F 55.4 °F 73% 29.92 in 6.2 mi West 16.1 mph - N/A   Mostly Cloudy
4:20 PM 64.4 °F 55.4 °F 73% 29.92 in 6.2 mi West 16.1 mph - N/A   Mostly Cloudy
4:50 PM 64.4 °F 55.4 °F 73% 29.92 in 6.2 mi West 18.4 mph - N/A   Mostly Cloudy
5:20 PM 62.6 °F 53.6 °F 72% 29.92 in 6.2 mi West 17.3 mph - N/A   Mostly Cloudy
5:50 PM 60.8 °F 53.6 °F 77% 29.92 in 6.2 mi West 15.0 mph - N/A   Mostly Cloudy
6:20 PM 60.8 °F 53.6 °F 77% 29.95 in 6.2 mi West 12.7 mph - N/A   Scattered Clouds
6:50 PM 60.8 °F 50.0 °F 68% 29.95 in 6.2 mi West 13.8 mph 26.5 mph N/A   Mostly Cloudy
7:20 PM 59.0 °F 50.0 °F 72% 29.95 in 6.2 mi West 12.7 mph - N/A   Partly Cloudy
7:50 PM 59.0 °F 48.2 °F 67% 29.98 in 6.2 mi West 11.5 mph - N/A   Partly Cloudy
8:20 PM 57.2 °F 44.6 °F 63% 29.98 in 6.2 mi West 12.7 mph - N/A   Partly Cloudy
8:50 PM 55.4 °F 42.8 °F 63% 30.01 in - West 13.8 mph - N/A   Clear
9:20 PM 53.6 °F 42.8 °F 67% 30.01 in - West 10.4 mph - N/A   Clear
9:50 PM 53.6 °F 41.0 °F 62% 30.01 in - West 11.5 mph - N/A   Clear
10:20 PM 51.8 °F 41.0 °F 67% 30.04 in 6.2 mi West 11.5 mph - N/A   Unknown
10:50 PM 51.8 °F 42.8 °F 71% 30.04 in - West 11.5 mph - N/A   Clear
11:20 PM 51.8 °F 41.0 °F 67% 30.04 in - West 8.1 mph - N/A   Clear
11:50 PM 51.8 °F 42.8 °F 71% 30.06 in 6.2 mi West 10.4 mph - N/A   Unknown